Regional Weather Roundup
Issued by NWS Upton, NY

Current Version | Previous Version | Text Only | Print | Product List | Glossary On
Versions: 1 2 3 4 5 6 7 8 9 10 11 12 13 14 15 16 17 18 19 20 21 22 23 24 25 26 27 28 29 30 31 32 33 34 35 36 37 38 39 40 41 42 43 44 45 46 47 48 49 50
317 ASUS41 KOKX 210214 RWROKX Regional Weather Roundup National Weather Service New York NY 1000 PM EDT TUE APR 20 2021 Note: "FAIR" indicates few or no clouds below 12,000 feet with no significant weather and/or obstructions to visibility. NYZ071-072-176-178-NJZ106-104-210300- New York City Metro Area CITY SKY/WX TMP DP RH WIND PRES REMARKS Central Park CLEAR 65 39 38 VRB5 29.92R Bronx Lehman C N/A 64 41 42 SW13G24 N/A LaGuardia Arpt PTCLDY 64 39 39 S16 29.89R Queens College N/A 57 45 62 S17 N/A Kennedy Intl PTCLDY 55 44 66 S23 29.92R Breezy Point N/A 54 N/A N/A S16G22 N/A Brooklyn Coll N/A 61 41 48 S17 N/A Staten Island N/A 63 41 45 S10 N/A Newark/Liberty PTCLDY 64 42 44 S10 29.89R Teterboro CLEAR 63 42 46 S14 29.88R $$ NYZ177-179-078>081-210300- Long Island New York CITY SKY/WX TMP DP RH WIND PRES REMARKS Jones Beach N/A 54 N/A N/A S18G26 N/A Wantagh N/A 55 45 67 S17G29 N/A Hempstead NOT AVBL Matinecock Pt N/A 61 N/A N/A SW14G21 N/A Farmingdale CLEAR 56 42 59 SW21G29 29.93R MacArthur/ISP PTCLDY 56 42 59 SW15G30 29.94R Shirley CLEAR 56 41 57 S18G26 29.95R Mt Sinai Harb N/A 57 N/A N/A S16G25 N/A Westhampton CLEAR 52 42 69 SW9G18 29.97R East Hampton FAIR 52 42 69 SW13G21 29.95R Southold N/A 55 43 62 SW15 N/A Montauk N/A 54 43 66 SW14G28 29.95R $$ NYZ052-065-067-210300- Hudson Valley CITY SKY/WX TMP DP RH WIND PRES REMARKS White Plains CLEAR 59 42 53 S8G18 29.89R Larchmont Harb N/A 57 N/A N/A S18 N/A Croton On Huds N/A 64 N/A N/A S9G21 N/A Somers N/A 55 41 58 N3 N/A Brewster N/A 52 41 66 N5 N/A Newburgh PTCLDY 52 41 66 NE9 29.91R Montgomery CLOUDY 51 39 63 NE10 29.90R Otisville N/A 52 39 62 NE7 N/A Warwick N/A 55 41 58 NE10 N/A Suffern N/A 63 41 45 S7 N/A Poughkeepsie PTCLDY 53 38 56 N6 29.91R Albany MOCLDY 43 32 65 NW5 29.96S $$ NJZ001-105-106-008-010-013-015-019>022-104-210300- New Jersey CITY SKY/WX TMP DP RH WIND PRES REMARKS Newark/Liberty PTCLDY 64 42 44 S10 29.89R Teterboro CLEAR 63 42 46 S14 29.88R Caldwell CLEAR 67 41 38 S8G18 29.88R Somerville CLEAR 63 42 46 S8 29.87R Linden FAIR 63 39 41 S9 29.90R Perth Amboy N/A 63 N/A N/A S16 N/A Sussex PTCLDY 63 39 41 CALM 29.88R Andover N/A 64 39 39 VRB5 29.87R Trenton CLEAR 61 42 49 S10 29.89R Millville CLEAR 59 43 55 VRB5 29.93S Atlantic City CLEAR 58 40 51 S15G24 29.95S Wrightstown CLEAR 58 40 50 S14G21 29.91S Toms River CLEAR 57 40 52 S12G20 29.94S Belmar CLEAR 60 39 45 S12 29.94S $$ PAZ047>061-062-071-210300- Eastern Pennsylvania CITY SKY/WX TMP DP RH WIND PRES REMARKS Philadelphia MOCLDY 63 44 50 S17G28 29.89S Allentown PTCLDY 65 39 38 S9 29.85S Scranton MOCLDY 51 37 58 NE7 29.91R $$ CTZ002-004>006-009-010-012-RIZ004-006-007-MAZ004-011-015-210300- Southern New England In CT CITY SKY/WX TMP DP RH WIND PRES REMARKS Bradley Intl MOCLDY 55 40 56 N6 29.91R Hartford CLOUDY 62 40 44 S6 29.91R Danbury CLEAR 61 41 47 CALM 29.90R Wtrbury/Oxford CLEAR 57 41 55 SW3 29.91R Norwalk Harbor N/A 55 N/A N/A S17 N/A Bridgeport CLEAR 58 42 55 S21 29.90R Meriden PTCLDY 59 39 47 S8 29.91R New Haven CLEAR 57 44 62 S12G25 29.90R Chester FAIR 55 41 58 SW10 29.93R Groton CLEAR 55 42 61 SW16G35 29.93R Willimantic MOCLDY 60 37 42 VRB6 29.92R In RI CITY SKY/WX TMP DP RH WIND PRES REMARKS Providence CLEAR 57 41 55 SW9 29.92R Block Island CLEAR 50 42 74 SW17G23 29.95S Westerly CLEAR 53 41 63 SW9 29.94R In MA CITY SKY/WX TMP DP RH WIND PRES REMARKS Boston MOCLDY 65 42 43 SW7 29.91R Worcester CLEAR 54 38 54 NW5 29.91R Westfield MOCLDY 54 38 54 NW7 29.92R Provincetown CLEAR 49 44 83 SW16 29.94R Nantucket CLEAR 51 47 86 SW14 29.98R $$ ANZ330-335-338-340-345-350-353-355-210300- Coastal Marine Observations STATION/POSITION TIME SKY/WX TEMP WIND PRES VSBY WAVE AIR SEA DIR/SP/G HT/PER (UTC) (F) (DEG/KT/KT) (MB) (MI) (FT/S) NY Harb Entrance 0150 49 190/ 19/ 23 1013.0 5/ 6 20 S Fire Island 0150 48 200/ 16/ 19 1013.9 5/ 5 Great South Bay 0130 55 56 220/ 21/ 27 N/A 23 SSW Montauk P 0150 51 47 200/ 19/ 23 1014.6 4/ 5 15 E Barnegat Li 0156 49 N/A 4/ 5 Hudson Canyon NOT AVBL Kings Point 0130 60 220/ 19/ 24 1012.9 Execution Rocks NOT AVBL Western LI Sound NOT AVBL Central LI Sound 0100 54 47 190/ 17/ 23 N/A 3/ 3 Robbins Reef 0130 64 200/ 21/ 25 1011.8 $$ >>>>>>>>>>>>>>>>>>>>>>>>>>>> KEY <<<<<<<<<<<<<<<<<<<<<<<<<<< > < > SKY/WX - Sky Condition/Present Weather < > TMP - Temperature in Fahrenheit < > DP - Dew Point in Fahrenheit < > RH - Relative Humidity in Percent < > WIND - Direction (from) and Speed in MPH < > PRES - Mean Sea Level Pressure (inches of Hg) < > WCI - Wind Chill Index < > VSB - Visibility in Miles < > HX - Heat Index < > TC - Temperature in Celsius < > VRB - Variable Wind Direction < > < >>>>>>>>>>>>>>>>>>>>>>>>>>>> KEY <<<<<<<<<<<<<<<<<<<<<<<<<<<

USA.gov is the U.S. government's official web portal to all federal, state and local government web resources and services.